User: anonymous   Login
Location: Unspecified
(0.0000°N, 0.0000°E)
Time: 18:55:18
(UTC+00:00)
Language:

Nadezhda 2 - Orbit

View from above orbital plane
View from above orbital plane
View from above satellite
View from above satellite

Ground track
Ground track

The orbit data is extracted from the following two-line orbital elements,

1 20508U 90017A   17145.73429552 +.00000061 +00000-0 +48802-4 0  9990
2 20508 082.9558 358.3466 0043065 305.6434 099.6379 13.74245080365801
Epoch (UTC): 25 May 2017 17:37:23
Eccentricity: 0.0043065
inclination: 82.9558°
perigee height: 952 km
apogee height: 1016 km
right ascension of ascending node: 358.3466°
argument of perigee: 305.6434°
revolutions per day: 13.74245080
mean anomaly at epoch: 99.6379°
orbit number at epoch: 36580

The dashed part of the orbit path shows where the satellite is in the earth's shadow,  

DLR